Starlink 1114

operational
NORAD ID: 44927 Int'l Des: 2020-001 Owner: SPXS Country: US Constellation: starlink
LEOCIRCULARSTARLINK_TYPE

Starlink 1114について

説明を読み込み中...

リアルタイム位置

3D地球を読み込み中...

次回通過

高度履歴

Altitude vs Time

uPlot chart will show altitude changes over time

軌道要素

1 44927U 20001P 25304.46486213 .00008770 00000-0 60694-3 0 9997
2 44927 53.0526 206.7326 0001526 85.0361 275.0802 15.06400063320376
Epoch: Oct 31, 2025 • Age: 13 hours

現在のステータス

高度 561.0 km
速度 7.58 km/s
衛星直下点 -39.76°S, 130.46°E
打ち上げ日 Jan 7, 2020
運用期間 5.8 years
タイプ internet

技術仕様

分類 Payload
質量 260.00 kg
乾燥質量 248.00 kg
総質量 260.00 kg
長さ 0.20 m
直径 2.80 m
スパン 9.00 m
形状 Box + pan
製造者 SPXS
バスタイプ Starlink
フェーズステータス In Orbit
所有者/国 SPXS/US

大規模コンステレーション

Loading constellations...